Flag for U.S.A. Weather past 2 weeks in Midland, Texas, U.S.A.

44 °F


Feels Like: 44 °F
Forecast: 40 / 59 °F
Wind: No wind

Location: Midland - Midland Airpark

Current Time: Nov 30, 2015 at 5:46:51 AM

Latest Report: Nov 30, 2015 at 5:15 AM

Visibility: 1 mi

Pressure: 29.99 "Hg (27.04 "Hg at 847m altitude)

Humidity: 100%

Dew point: 44 °F

Location of MidlandLocation

Historic Weather in Midland — Graph


Midland temperature yesterday

Maximum temperature yesterday: 45 °F (at 2:15 PM)
Minimum temperature yesterday: 36 °F (at 6:55 AM)
Average temperature yesterday: 40 °F

Past Weeks' High & Low Weather Summary

High74 °F (Nov 20, 3:15 PM)100% (Nov 15, 7:35 PM)30.47 "Hg (Nov 15, 7:35 PM)
Low28 °F (Nov 22, 4:35 AM)16% (Nov 22, 2:55 PM)29.49 "Hg (Nov 16, 7:15 PM)
Average51 °F68%30.06 "Hg
* Reported Nov 15 4:15 AM — Nov 30 4:55 AM, Midland, Weather by CustomWeather, © 2015

Note: Actual official high and low records may vary slightly from our data, if they occured in-between our weather recording intervals... More about our weather records


Midland weather history for previous 24 hours

Time TempWeatherWind HumidityBarometerVisibility
4:55 AM
Mon, Nov 30
44 °FFog.No wind100%30.00 "Hg1 mi
4:15 AM44 °FFog.No wind100%30.01 "Hg3 mi
3:55 AM43 °FFog.No wind100%30.00 "Hg4 mi
3:35 AM43 °FFog.No wind100%30.00 "Hg3 mi
3:15 AM43 °FFog.No wind100%30.01 "Hg3 mi
2:55 AM43 °FFog.No wind100%30.01 "Hg2 mi
2:35 AM43 °FFog.No wind100%30.02 "Hg2 mi
2:15 AM43 °FFog.No wind100%30.03 "Hg2 mi
12:55 AM43 °FFog.No wind100%30.03 "Hg1 mi
11:55 PM
Sun, Nov 29
42 °FFog.No wind100%30.03 "Hg1 mi
11:15 PM42 °FFog.3 mph100%30.04 "Hg2 mi
10:55 PM42 °FFog.No wind100%30.04 "Hg2 mi
10:15 PM42 °FFog.No wind100%30.06 "Hg2 mi
9:35 PM42 °FFog.5 mph100%30.06 "Hg3 mi
9:15 PM42 °FLow clouds.5 mph100%30.06 "Hg7 mi
8:55 PM42 °FMostly cloudy.6 mph100%30.05 "Hg7 mi
8:15 PM43 °FLow clouds.5 mph96%30.07 "Hg7 mi
6:15 PM44 °FLow clouds.7 mph87%30.07 "Hg10 mi
5:55 PM44 °FLow clouds.3 mph87%30.07 "Hg10 mi
4:55 PM44 °FLow clouds.No wind84%30.08 "Hg10 mi
4:15 PM45 °FOvercast.6 mph83%30.07 "Hg10 mi
3:55 PM44 °FOvercast.6 mph83%30.07 "Hg10 mi
3:35 PM45 °FOvercast.3 mph83%30.09 "Hg10 mi
3:15 PM44 °FOvercast.5 mph84%30.09 "Hg10 mi
2:55 PM44 °FOvercast.3 mph83%30.10 "Hg10 mi
2:35 PM45 °FOvercast.No wind81%30.10 "Hg10 mi
2:15 PM45 °FOvercast.5 mph81%30.12 "Hg10 mi
1:55 PM44 °FOvercast.3 mph81%30.11 "Hg10 mi
1:35 PM44 °FOvercast.3 mph80%30.12 "Hg10 mi
1:15 PM43 °FOvercast.No wind79%30.13 "Hg10 mi
12:55 PM44 °FMostly cloudy.No wind80%30.14 "Hg10 mi
12:35 PM43 °FOvercast.No wind79%30.15 "Hg10 mi
12:15 PM42 °FMostly cloudy.No wind80%30.16 "Hg10 mi
11:55 AM41 °FMostly cloudy.No wind83%30.18 "Hg10 mi
11:35 AM40 °FLow clouds.No wind88%30.19 "Hg10 mi
11:15 AM39 °FLow clouds.No wind95%30.20 "Hg10 mi
10:55 AM38 °FLow clouds.3 mph100%30.21 "Hg10 mi
10:35 AM38 °FLow clouds.6 mph100%30.22 "Hg7 mi
10:15 AM37 °FFog.5 mph100%30.22 "Hg4 mi
9:55 AM37 °FLow clouds.5 mph100%30.23 "Hg10 mi
9:35 AM37 °FLow clouds.5 mph100%30.22 "Hg10 mi
9:15 AM37 °FLow clouds.5 mph100%30.22 "Hg10 mi
8:55 AM37 °FLow clouds.5 mph100%30.21 "Hg10 mi
8:35 AM37 °FMostly cloudy.5 mph100%30.21 "Hg10 mi
8:15 AM36 °FMore clouds than sun.6 mph100%30.20 "Hg10 mi
7:55 AM36 °FLight rain. More clouds than sun.7 mph100%30.20 "Hg10 mi
7:35 AM36 °FCloudy.5 mph100%30.20 "Hg10 mi
7:15 AM36 °FDrizzle. Mostly cloudy.3 mph100%30.19 "Hg10 mi
6:55 AM36 °FLight rain. Mostly cloudy.3 mph100%30.19 "Hg7 mi
6:35 AM37 °FRain. Mostly cloudy.5 mph100%30.16 "Hg7 mi
6:15 AM37 °FOvercast.7 mph100%30.16 "Hg10 mi
5:55 AM37 °FLight rain. Low clouds.7 mph100%30.15 "Hg7 mi
5:35 AM37 °FLight rain. Low clouds.5 mph100%30.17 "Hg5 mi
5:15 AM37 °FRain. Low clouds.No wind100%30.19 "Hg4 mi
Weather by CustomWeather, © 2015

See weather overviewHow to use our weather pages